CAPE
0 0 0 0 0 0 12 0 0 3 71 221 358 284 147 295 914 1409 1929 1478 1154 1534 887 318 204 407 899 1349 1251 908 705 409 200 340 484 117 169 127 358 673 950 1007 1028 749 516 705 731 357 62
0 0 0 0 0 16 17 0 0 179 405 178 55 2 115 470 949 2213 2264 1552 1503 1631 838 478 161 291 577 964 1194 946 721 349 110 212 311 149 157 239 326 688 988 1133 1064 996 679 418 411 390 237
0 0 0 0 0 20 0 0 0 28 28 145 0 0 78 511 1160 1625 2211 1919 1910 1647 955 1018 104 98 291 561 899 985 805 473 130 203 357 332 178 215 227 445 931 1052 854 730 610 307 162 93 69
0 0 0 0 0 10 0 0 0 0 0 0 6 5 1018 1413 1825 2312 2421 2090 2028 1685 1286 880 262 82 94 216 569 820 856 739 562 798 638 536 455 257 218 279 407 713 675 486 425 244 8 0 0
0 0 0 0 16 0 0 0 0 1 2 0 0 17 1310 1770 2179 2355 2352 1871 1668 1296 2220 870 343 222 139 89 219 384 634 892 1048 1128 1060 870 714 402 245 334 459 800 809 581 441 295 152 14 0
0 0 0 8 7 0 0 0 0 0 0 2 0 134 412 442 1501 1629 1780 1530 1430 1389 1726 1228 705 409 218 89 92 190 369 566 802 857 731 618 501 315 157 218 386 667 900 944 807 478 152 11 5
0 0 0 21 0 0 0 0 0 0 0 0 0 7 21 31 1236 1276 1371 1404 1450 1531 1770 1274 1011 858 451 247 43 63 199 306 398 450 487 425 284 171 114 187 356 490 618 591 553 441 290 82 0
0 0 0 4 4 1 0 0 0 0 0 0 0 0 0 0 355 593 688 889 1094 1400 1785 1753 1342 1125 787 695 407 117 70 145 189 192 211 177 147 115 82 187 135 276 380 436 505 486 361 168 0
0 0 1 11 24 3 0 0 0 0 0 0 0 0 0 0 0 54 186 433 860 1009 1333 1667 1836 1583 1146 1107 981 397 253 222 149 110 132 48 0 74 79 0 111 76 346 592 642 602 457 282 123
0 0 5 12 0 0 0 0 0 0 0 0 0 0 0 0 0 0 2 34 444 874 1152 1491 2343 2262 1912 1480 1830 762 558 215 118 121 324 67 6 79 59 214 153 367 392 442 517 428 400 408 49
0 0 0 2 0 0 0 0 0 0 0 0 0 0 0 0 0 0 0 0 5 167 375 286 1972 1968 1860 1820 2265 1507 1331 817 566 478 779 287 341 343 100 90 392 633 284 368 532 637 800 713 241
0 0 0 0 0 0 0 0 0 0 0 0 0 0 0 0 0 0 0 0 0 0 0 52 350 1730 2304 1802 1958 2058 1603 1519 1414 1137 1137 948 906 762 741 458 844 833 810 923 935 796 632 473 341
0 0 0 0 0 0 0 0 0 0 0 0 0 0 0 0 0 0 0 0 0 0 0 0 112 1145 2242 2724 2373 2205 1675 1541 1365 1372 1342 1051 898 894 921 647 458 191 160 267 356 673 676 782 797
0 0 0 0 0 0 0 0 0 0 0 0 0 0 0 0 0 0 0 0 0 0 0 0 4 917 1926 2258 2946 2299 1994 1822 1700 1436 1421 1217 1328 1467 1780 1550 1144 485 1182 710 564 404 433 104 29
0 0 0 0 0 0 0 0 0 0 0 0 0 0 0 0 0 0 0 0 0 0 0 0 58 1824 2864 3256 3105 2700 2233 2087 1893 1584 1796 1353 1777 1945 1600 595 298 6 0 2 5 1 0 0 0
0 0 0 0 0 0 0 0 0 0 0 0 0 0 0 0 0 0 0 0 0 0 0 0 0 1072 3099 3239 3249 2738 2332 2211 1833 1847 1890 1765 1654 1086 1004 26 0 0 0 0 0 0 0 0 0
0 0 0 0 0 0 0 0 0 0 0 0 0 0 0 0 0 0 0 0 0 0 0 0 13 302 2742 3266 2817 2185 2548 1699 1359 984 783 1007 479 129 22 0 0 0 0 0 0 0 0 0 0
0 0 0 0 0 0 0 0 0 0 0 0 0 0 0 0 0 0 0 0 0 0 0 0 424 699 2252 3036 2978 1481 1794 994 675 586 303 137 31 0 0 0 0 0 0 0 0 0 0 0 0
0 0 0 0 0 0 0 0 0 0 0 0 0 0 0 0 0 0 0 0 0 0 0 21 745 2200 2166 2082 1355 721 813 738 137 73 70 36 0 0 0 0 0 0 0 0 0 0 0 0 0
0 0 0 0 0 0 0 0 0 0 0 0 0 0 0 0 0 0 0 0 0 149 628 1057 1557 2103 2180 1613 1153 669 236 140 84 52 30 4 0 0 0 0 0 0 0 0 0 4 0 0 0
0 0 0 0 0 0 0 0 0 0 0 0 0 0 0 0 0 0 0 0 7 145 399 750 1058 1328 1272 917 506 305 221 112 36 16 19 32 0 0 0 0 0 0 0 0 0 0 0 0 0
0 0 0 0 0 0 0 0 0 0 0 0 0 0 0 0 0 0 0 0 0 10 63 200 269 221 134 175 128 128 63 28 21 3 0 0 0 0 0 0 0 0 0 0 0 0 0 0 0
0 0 0 0 0 0 0 0 0 0 0 0 0 0 0 0 0 0 0 0 0 11 24 34 34 37 37 38 15 3 7 4 0 0 0 0 0 0 0 0 0 0 0 0 0 0 0 0 0
0 0 0 0 0 0 0 0 0 1 0 0 1 1 0 0 0 5 10 0 0 0 0 12 35 17 0 0 0 13 7 0 0 0 0 0 0 0 0 0 0 0 0 0 0 0 0 0 0
0 0 0 0 0 0 0 0 0 0 0 0 0 10 15 2 3 8 12 24 2 0 0 0 0 0 0 0 0 0 0 0 2 1 0 0 0 0 0 0 0 0 0 0 0 0 0 0 0
0 0 0 0 0 0 0 0 0 0 0 0 0 0 17 53 21 46 48 28 30 44 16 0 1 3 6 0 0 0 0 0 0 0 0 0 0 0 0 0 0 0 0 0 0 0 0 0 1
0 0 0 0 0 0 0 0 0 10 0 0 0 2 7 0 0 2 4 0 6 14 4 2 0 0 1 3 0 1 0 0 0 0 0 0 0 0 0 0 0 0 0 0 0 0 5 8 10
0 0 0 0 0 0 0 0 0 23 11 1 3 0 0 0 0 0 4 0 0 0 0 4 14 12 1 13 21 1 0 0 0 0 0 0 0 0 0 0 0 0 0 0 6 8 16 26 17
0 0 0 0 0 0 0 0 0 0 0 2 11 17 5 15 16 0 0 0 0 0 0 2 2 2 11 33 27 24 24 8 1 0 0 0 0 0 0 0 0 0 0 4 15 20 11 14 22
0 0 0 0 0 0 0 0 0 2 0 1 0 1 0 3 7 3 2 8 1 0 0 0 1 2 0 0 40 47 23 16 12 10 7 4 1 3 1 0 0 1 2 9 20 8 19 15 19
CIN
0 0 0 0 0 0 -38 -1 0 -2 -16 -14 -10 -9 -15 -50 -46 -7 -46 -104 -138 -163 -340 -517 -590 -469 -321 -198 -169 -220 -265 -353 -427 -348 -278 -447 -395 -406 -247 -128 -76 -57 -44 -76 -103 -56 -42 -104 -255
0 0 0 0 0 -4 -18 0 -4 -6 -4 -32 -46 -39 -4 -43 -34 -31 -50 -139 -148 -182 -334 -417 -624 -521 -398 -271 -190 -219 -271 -382 -499 -404 -341 -404 -386 -321 -256 -131 -61 -25 -29 -28 -70 -104 -102 -101 -155
0 0 0 0 0 -28 -18 0 0 -38 -53 -26 0 0 -69 -32 -51 -54 -77 -100 -120 -176 -278 -326 -638 -609 -499 -381 -263 -214 -242 -332 -472 -404 -307 -292 -342 -307 -290 -184 -66 -33 -56 -73 -88 -143 -208 -264 -289
0 0 0 0 0 -9 0 0 0 0 0 0 -52 -35 -57 -56 -40 -49 -68 -78 -117 -156 -188 -399 -548 -603 -587 -503 -342 -251 -216 -222 -259 -162 -185 -197 -207 -279 -296 -238 -152 -71 -78 -116 -127 -177 -341 0 0
0 0 0 0 -7 0 0 0 0 -3 -2 -2 0 -12 -32 -66 -62 -58 -58 -76 -98 -134 -100 -348 -504 -530 -549 -564 -462 -367 -261 -175 -118 -78 -71 -92 -115 -201 -262 -207 -134 -44 -38 -78 -116 -174 -266 -284 0
0 0 0 -6 -6 0 0 0 0 0 -1 -39 -1 -11 -48 -102 -52 -43 -26 -50 -67 -89 -121 -288 -426 -480 -510 -553 -529 -453 -342 -255 -177 -142 -149 -157 -173 -233 -317 -265 -162 -70 -24 -14 -28 -101 -279 -448 -474
0 0 0 -27 0 0 0 0 0 0 0 0 -2 -7 -66 -146 -43 -39 -36 -35 -43 -57 -79 -212 -291 -347 -436 -484 -578 -545 -432 -352 -295 -252 -218 -215 -256 -298 -324 -272 -162 -102 -57 -69 -89 -124 -187 -315 0
0 0 0 -8 -8 -2 0 0 0 0 0 0 0 0 0 0 -90 -70 -41 -29 -13 -27 -12 -76 -150 -212 -276 -316 -405 -504 -510 -435 -387 -355 -327 -326 -329 -332 -340 -254 -281 -192 -136 -109 -95 -102 -148 -249 -6
0 0 -59 -5 -8 -7 0 0 0 0 0 0 0 0 0 0 0 -105 -68 -19 -7 -4 -3 -2 -14 -83 -113 -110 -216 -365 -390 -382 -394 -396 -366 -426 0 -320 -296 0 -240 -267 -116 -42 -37 -47 -99 -179 -273
0 0 -36 -21 0 0 0 0 0 0 0 0 0 0 0 0 0 0 -93 -59 -5 -5 -5 -4 -1 -2 -8 -3 -97 -166 -199 -298 -338 -310 -226 -299 -232 -195 -194 -122 -178 -89 -81 -73 -67 -91 -114 -128 -257
0 0 0 -6 0 0 0 0 0 0 0 0 0 0 0 0 0 0 0 0 -6 -20 -23 -44 -14 -22 -1 -2 -7 -23 -24 -52 -95 -86 -28 -133 -66 -68 -148 -134 -32 -34 -105 -58 -34 -58 -54 -13 -76
0 0 0 0 0 0 0 0 0 0 0 0 0 0 0 0 0 0 0 0 0 0 0 -232 -53 -21 -22 -1 -4 -2 -1 -3 -4 -7 -4 -2 -2 -2 -4 -10 -11 -14 -26 -5 -3 -4 -14 -7 -18
0 0 0 0 0 0 0 0 0 0 0 0 0 0 0 0 0 0 0 0 0 0 0 0 -209 -25 -7 -6 -3 -2 -4 -9 -3 -2 -8 -11 -17 -11 -12 -42 -52 -87 -100 -74 -66 -36 -10 -4 -2
0 0 0 0 0 0 0 0 0 0 0 0 0 0 0 0 0 0 0 0 0 0 0 0 -74 -31 -7 0 -1 -12 -4 -2 -4 -3 -4 -3 -1 -6 0 -6 -1 -2 -6 -2 -16 -14 -6 -34 -65
0 0 0 0 0 0 0 0 0 0 0 0 0 0 0 0 0 0 0 0 0 0 0 0 -212 -19 -19 0 -1 -1 -2 -5 -2 -2 -3 -8 -1 -1 0 -2 -2 -5 0 -7 -2 -3 0 0 0
0 0 0 0 0 0 0 0 0 0 0 0 0 0 0 0 0 0 0 0 0 0 0 0 0 -9 -8 -1 0 -2 -8 -1 -9 -7 -1 0 0 0 -7 -20 0 0 0 0 0 0 0 0 0
0 0 0 0 0 0 0 0 0 0 0 0 0 0 0 0 0 0 0 0 0 0 0 0 -45 -9 -6 -1 -1 -1 -2 -2 -5 -4 -2 -2 -6 -42 -62 0 0 0 0 0 0 0 0 0 0
0 0 0 0 0 0 0 0 0 0 0 0 0 0 0 0 0 0 0 0 0 0 0 0 -24 -7 -1 -2 -1 -1 -1 -1 -1 -3 -15 -76 -66 0 0 0 0 0 0 0 0 0 0 0 0
0 0 0 0 0 0 0 0 0 0 0 0 0 0 0 0 0 0 0 0 0 0 0 -150 -45 -1 -1 -1 -2 -2 -2 -3 -39 -90 -97 -116 0 0 0 0 0 0 0 0 0 0 0 0 0
0 0 0 0 0 0 0 0 0 0 0 0 0 0 0 0 0 0 0 0 0 -133 -94 -74 -24 -3 -2 -2 -2 -3 -7 -31 -28 -95 -131 -119 0 0 0 0 0 0 0 0 0 -21 0 0 0
0 0 0 0 0 0 0 0 0 0 0 0 0 0 0 0 0 0 0 0 -105 -136 -110 -84 -49 -20 -10 -19 -65 -68 -60 -84 -79 -114 -102 -116 0 0 0 0 0 0 0 0 0 0 0 0 0
0 0 0 0 0 0 0 0 0 0 0 0 0 0 0 0 0 0 0 0 0 -145 -152 -128 -118 -116 -119 -78 -79 -71 -46 -39 -44 -52 0 0 0 0 0 0 0 0 0 0 0 0 0 0 0
0 0 0 0 0 0 0 0 0 0 0 0 0 0 0 0 0 0 0 0 0 -135 -153 -173 -197 -192 -190 -156 -150 -51 -92 -108 0 0 0 0 0 0 0 0 0 0 0 0 0 0 0 0 0
0 0 0 0 0 0 0 0 0 -3 0 0 -2 -1 0 0 -1 -2 -3 0 0 0 0 -134 -145 -172 0 0 0 -107 -100 0 0 0 0 0 0 0 0 0 0 0 0 0 0 0 0 0 0
0 0 0 0 0 0 0 0 0 0 0 0 0 -3 -4 -5 -2 -4 -4 -2 -2 0 0 0 0 0 0 0 0 0 0 0 -66 -46 0 0 0 0 0 0 0 0 0 0 0 0 0 0 0
0 0 0 0 0 0 0 0 0 0 0 0 0 0 -5 -4 -4 -4 -2 -2 -5 -4 -3 0 -2 -37 -86 0 0 0 0 0 0 0 0 0 0 0 0 0 0 0 0 0 0 0 0 0 -1
0 0 0 0 0 0 0 0 0 -26 0 0 0 -2 -4 0 0 -20 -42 0 -20 -11 -6 -5 -1 0 -3 -72 -17 -111 -4 0 0 0 0 0 0 0 0 0 0 0 0 0 0 -1 -1 -1 -1
0 0 0 0 0 0 0 0 0 -12 -8 -5 -4 0 0 0 0 0 -38 0 0 0 0 -6 -3 -2 -1 -3 -2 -1 -1 0 0 0 0 0 0 0 0 0 0 0 0 -1 -1 -2 -1 -1 -3
0 0 -2 0 0 0 0 0 0 0 0 -3 -4 -4 -9 -6 -8 0 -1 0 0 0 0 -10 -12 -29 -3 -9 -4 -3 -2 -2 -2 0 -2 0 -1 0 0 0 0 0 0 -1 -1 -2 -4 -3 -2
0 0 0 0 0 0 0 0 0 -7 0 -4 -1 -10 0 -11 -6 -4 -3 -6 -5 0 0 0 -47 -47 0 0 -3 -5 -5 -1 -1 -2 -2 -2 -2 -1 -1 -1 0 -1 -2 -1 -2 -5 -2 -1 -1
Wind_Speed
24 23 22 22 20 22 14 9 13 10 10 11 12 13 21 4 14 6 13 12 15 16 19 20 20 20 20 20 20 19 18 18 18 17 18 17 17 16 17 18 17 15 13 11 11 11 18 17 17
23 23 23 23 25 24 9 12 12 11 9 10 12 13 18 19 17 18 16 14 14 17 18 17 17 17 18 18 18 18 17 16 15 15 15 16 15 15 14 14 13 11 11 11 12 12 13 15 15
23 23 24 27 31 22 11 11 13 9 10 13 13 14 16 15 18 16 17 15 15 15 17 16 17 17 17 16 16 15 15 14 14 14 13 13 13 13 12 11 10 10 11 12 13 13 13 13 13
21 24 22 28 26 15 18 15 15 11 11 14 12 13 14 16 16 17 17 15 15 16 16 15 15 15 15 15 14 14 13 12 12 11 11 11 11 10 10 9 8 9 11 12 13 13 14 16 14
24 24 27 29 27 18 20 16 16 13 10 12 15 10 12 15 16 17 16 15 14 14 15 15 14 13 13 13 13 13 12 11 10 10 9 9 9 8 8 8 7 8 10 11 12 12 13 14 15
22 22 27 26 20 15 18 17 17 19 12 12 15 8 12 12 13 15 16 15 13 12 14 14 14 14 12 11 11 11 10 9 9 8 8 8 8 7 7 7 6 7 9 10 10 10 10 12 13
25 26 31 27 15 18 15 19 17 16 16 13 16 14 9 10 11 13 13 13 11 12 12 11 11 11 11 10 10 9 9 8 8 8 8 8 7 7 7 6 7 8 10 11 11 11 12 13 13
24 27 31 26 22 19 13 19 18 19 15 17 18 18 8 10 10 11 11 11 10 10 9 9 9 9 8 8 9 8 8 8 8 8 8 8 8 8 8 9 9 10 12 13 13 13 14 15 15
24 30 31 29 23 24 15 21 15 19 20 17 17 16 13 11 10 9 11 10 9 10 9 8 7 7 6 7 8 8 8 8 8 8 8 8 9 9 9 10 12 12 15 16 16 16 17 17 17
30 36 36 27 26 25 24 21 23 21 20 19 16 15 14 12 12 13 11 12 10 10 8 7 9 8 7 8 7 7 7 7 7 7 8 9 10 10 13 13 11 14 16 18 18 18 18 19 21
28 37 37 35 31 29 30 29 26 27 28 25 25 15 12 14 15 16 14 17 15 11 11 13 8 11 10 9 8 7 6 7 8 8 8 9 11 12 13 14 14 15 13 18 16 17 17 18 19
32 32 34 35 29 33 31 33 35 31 29 26 23 22 23 21 21 17 16 15 14 16 13 14 15 12 12 11 10 9 9 8 10 8 9 13 13 15 18 19 21 20 22 24 25 26 29 28 27
29 34 29 33 30 31 33 38 38 40 37 26 25 24 24 24 23 21 21 20 16 13 16 17 15 14 13 13 13 14 10 10 9 11 10 11 13 14 17 19 20 22 22 23 25 26 28 30 31
26 29 22 24 31 30 31 34 37 40 37 30 29 30 27 25 23 21 19 17 14 14 14 15 15 13 13 13 14 14 13 11 9 10 8 11 14 15 16 17 20 22 19 21 25 27 29 32 33
27 29 27 21 23 24 23 25 17 14 18 24 28 27 26 24 20 20 16 14 13 13 13 14 15 14 13 13 12 12 11 10 11 10 12 12 13 14 18 20 22 23 25 28 29 31 33 35 36
28 27 33 22 13 18 20 29 19 10 18 26 27 25 23 22 19 18 18 18 17 16 13 13 14 10 12 13 12 10 9 10 10 10 9 12 12 15 17 19 22 25 28 30 32 33 36 37 38
28 33 29 18 15 20 15 22 11 15 23 25 24 24 22 21 20 20 18 20 19 18 17 15 14 12 11 10 9 9 9 9 8 13 11 12 15 15 19 20 23 26 28 29 31 32 35 38 39
30 28 27 26 17 18 24 27 27 18 20 26 25 25 24 24 23 22 25 25 24 20 16 14 12 11 9 9 9 8 8 10 11 12 13 12 14 16 19 22 23 27 29 31 32 36 36 38 38
28 27 28 20 21 27 31 32 29 29 28 26 25 23 24 22 22 22 22 21 18 16 14 13 12 10 9 8 6 7 8 9 8 11 11 12 15 17 20 24 26 28 31 33 34 36 38 39 39
25 27 29 25 26 29 33 34 32 27 25 24 22 20 17 15 16 18 17 16 15 13 13 12 10 10 8 8 10 9 7 7 9 10 12 14 17 20 23 26 29 31 34 36 37 37 40 40 38
24 28 29 29 33 36 35 36 30 16 20 18 16 16 15 15 15 16 16 15 14 13 12 11 10 9 9 9 9 9 10 12 11 12 13 16 21 23 26 28 30 32 34 36 37 39 41 40 36
27 21 25 30 32 33 31 40 33 15 18 17 15 15 14 15 15 15 15 15 14 13 12 11 10 9 9 9 9 10 12 13 13 16 18 21 22 25 28 30 32 34 36 38 37 36 39 40 42
27 26 30 31 34 36 33 30 28 17 21 18 16 16 16 14 15 14 14 15 15 13 13 12 12 13 13 14 13 14 16 16 16 18 21 23 25 26 30 32 34 36 37 39 39 39 37 36 38
26 29 30 29 29 34 26 24 23 17 19 21 16 18 17 15 16 16 17 16 16 15 14 15 15 15 16 16 17 18 19 21 22 23 26 27 27 29 30 33 35 37 38 39 40 40 39 37 37
21 28 30 24 22 26 19 29 31 23 20 23 23 17 16 16 17 18 18 16 18 19 19 20 19 20 20 20 20 21 22 24 26 26 28 30 31 32 34 37 38 39 40 41 41 40 39 37 37
25 23 26 30 31 34 35 37 30 17 19 22 23 22 18 17 20 20 21 23 25 23 22 24 26 25 24 24 24 24 25 26 27 28 29 31 34 35 37 39 39 41 42 42 41 40 39 38 36
17 22 23 30 32 34 33 30 23 12 18 18 21 22 23 27 28 29 28 29 31 32 32 33 32 31 31 30 29 30 29 30 31 32 32 33 34 36 39 41 41 42 42 41 40 39 39 37 35
20 26 27 23 33 36 32 37 33 21 18 21 23 25 29 32 33 31 32 36 38 40 40 38 36 36 37 37 33 33 32 31 32 34 35 37 38 39 40 42 41 40 40 39 38 38 37 36 34
22 24 19 23 28 37 41 29 20 29 26 27 27 30 32 32 32 35 38 39 39 40 41 42 41 39 38 35 36 36 35 35 36 36 36 38 40 41 42 42 41 40 40 38 37 37 36 33 32
22 23 25 28 32 31 36 42 34 26 22 34 38 36 37 37 38 40 42 43 43 42 44 41 40 43 45 44 42 40 37 37 38 40 39 39 42 41 41 40 40 39 39 38 37 37 33 34 33
Wind_Direction
259 248 254 239 246 239 269 304 281 336 350 327 247 348 17 18 318 333 29 0 51 58 82 88 79 73 74 79 90 91 89 90 92 85 85 85 80 78 82 86 79 61 30 4 342 10 133 97 72
265 263 257 246 243 249 313 300 300 314 340 357 288 322 11 7 13 37 40 31 48 67 84 79 77 70 65 70 77 85 84 86 85 81 84 85 84 81 80 80 68 28 349 337 333 337 18 78 102
262 261 256 245 238 268 313 306 301 323 304 295 325 311 315 350 3 16 30 48 53 64 82 79 83 77 70 65 67 74 77 82 86 85 81 80 81 81 75 70 55 21 350 334 332 320 346 32 118
269 257 267 244 245 291 283 306 286 301 314 293 325 342 354 337 353 22 43 43 53 68 77 76 77 74 71 65 65 65 67 73 80 80 78 75 73 70 68 61 48 22 359 351 341 340 340 325 345
257 260 256 249 262 288 276 298 287 286 313 319 298 343 356 9 26 37 34 50 56 64 59 79 76 67 62 62 65 62 63 64 68 67 62 59 56 52 46 42 35 16 1 358 357 356 351 345 339
263 265 256 256 271 285 280 287 283 273 298 312 304 359 341 0 28 35 47 53 53 49 56 73 77 76 62 51 49 48 50 51 45 40 34 33 37 39 32 23 22 10 6 4 7 17 13 1 351
261 261 249 270 282 278 285 284 287 292 290 301 303 312 348 354 15 21 20 33 35 50 55 56 64 64 63 51 35 32 32 31 23 13 9 9 8 6 4 9 358 349 342 344 347 348 346 343 344
270 265 255 264 273 282 299 283 288 285 299 303 297 305 319 353 356 10 19 21 22 20 36 50 55 60 53 34 25 19 12 11 9 4 357 351 347 344 341 335 336 334 333 332 334 335 334 331 331
279 261 258 258 275 275 309 278 296 291 292 301 307 313 328 337 349 358 357 356 1 355 359 23 34 34 36 35 16 3 356 351 346 346 344 344 340 338 331 327 324 324 322 321 322 323 323 323 322
256 257 253 276 281 278 290 284 289 289 288 296 306 314 321 332 334 330 337 338 335 334 343 354 359 5 8 359 14 356 353 346 341 340 338 331 329 329 325 324 327 320 316 316 315 317 317 316 315
257 251 259 270 272 277 274 277 285 282 280 290 286 305 325 323 321 317 322 324 335 334 334 336 353 340 338 339 352 349 347 340 333 329 331 328 327 326 325 322 324 324 319 320 316 318 317 318 317
260 263 258 271 280 274 281 278 274 279 282 300 295 299 302 308 306 314 314 321 319 321 331 324 329 333 327 330 329 330 328 332 328 326 322 320 316 319 315 317 319 322 320 318 317 314 311 311 310
269 264 270 274 275 279 277 272 276 268 276 291 294 298 299 301 303 305 306 308 321 323 316 320 322 324 322 316 323 319 319 322 321 323 317 320 319 318 318 316 317 318 319 319 319 317 313 311 309
281 273 289 286 273 282 283 282 277 260 267 282 288 289 295 300 304 308 307 305 310 317 322 325 326 329 325 320 316 312 319 320 321 318 319 317 316 319 320 321 319 319 320 323 319 316 313 310 309
279 279 286 292 294 292 298 296 286 278 299 295 291 294 296 300 308 307 311 310 312 314 317 321 326 331 331 326 320 317 317 319 315 319 321 324 322 323 318 318 318 319 322 319 317 315 313 310 308
277 281 278 285 286 297 299 296 316 302 299 296 296 298 300 302 306 310 309 309 308 308 315 314 320 328 329 328 323 321 327 325 328 322 334 327 328 323 325 323 322 323 320 319 317 317 314 312 310
273 272 278 288 294 296 299 300 328 312 302 302 303 302 304 304 304 305 307 308 304 303 303 307 309 315 323 334 336 334 332 326 328 320 334 335 328 330 325 325 325 324 322 322 321 321 319 316 315
276 271 279 282 297 301 295 293 295 305 312 305 304 305 305 305 306 310 305 303 302 298 299 301 303 309 317 329 329 335 336 331 332 331 338 338 336 334 329 327 327 326 324 322 323 320 319 318 316
281 282 283 299 299 296 295 296 299 300 303 307 306 309 308 309 313 313 313 312 312 307 302 299 298 306 306 310 308 317 327 334 340 343 342 338 336 336 332 327 326 324 322 322 322 321 318 317 318
284 283 285 292 298 298 301 297 301 301 306 309 313 314 319 324 329 330 332 333 329 323 319 313 307 307 300 305 309 311 325 328 335 338 334 334 333 330 327 325 323 322 320 320 319 318 317 316 318
286 284 289 292 298 299 296 299 302 304 314 318 321 326 330 332 336 340 341 342 346 341 332 328 324 319 315 315 317 322 323 322 321 325 326 329 325 324 324 324 323 322 321 319 319 318 315 316 318
288 303 299 297 297 294 309 293 305 301 308 318 322 322 329 335 338 341 346 349 350 353 353 347 339 333 328 318 315 307 304 306 317 317 320 320 323 323 323 322 322 321 320 319 319 320 317 315 313
293 305 297 297 294 296 297 296 305 317 311 309 319 323 327 333 335 338 343 345 346 348 342 338 333 327 322 319 317 309 309 311 312 314 316 317 318 320 320 321 321 320 320 319 318 317 317 316 314
306 303 301 299 298 296 297 300 307 329 324 328 329 320 323 331 334 335 336 336 333 334 333 328 322 318 316 313 312 309 306 306 306 309 310 313 317 319 321 321 320 320 319 318 317 316 315 314 313
313 308 302 300 297 303 315 305 304 321 327 326 325 330 323 331 329 327 325 326 328 323 320 317 313 310 309 307 306 306 306 305 304 306 308 310 313 316 318 320 319 319 318 317 316 315 315 314 312
311 314 305 299 298 294 307 303 310 322 327 324 324 322 336 330 322 323 323 320 317 322 317 312 309 305 303 302 301 302 303 303 304 306 307 309 311 314 317 317 317 316 316 316 316 314 314 313 312
325 319 324 307 303 299 303 310 324 347 333 335 339 336 331 328 331 332 328 323 320 316 311 308 305 300 298 296 296 297 298 298 300 302 306 308 310 312 313 314 315 315 315 315 315 315 314 314 313
325 323 315 313 304 302 306 307 312 336 339 330 327 329 323 321 319 319 315 314 311 310 309 308 302 297 296 296 294 294 295 296 298 300 301 304 306 309 312 313 314 315 316 315 316 315 315 314 314
324 320 324 320 315 306 303 310 343 327 320 324 322 320 324 321 316 314 313 313 311 309 307 305 301 301 299 293 291 292 292 295 297 298 299 302 306 308 310 311 312 313 314 315 315 315 315 316 316
326 321 320 315 312 311 308 303 315 320 324 323 319 319 319 320 321 319 316 311 309 307 306 304 306 304 294 292 293 290 288 293 297 298 299 301 303 306 308 310 311 311 312 313 314 314 318 317 317